This is the latest recevied weather packets stored in our database for station/object K6HN. If no packets are shown the sender has not sent any weather packets the latest 10 day(s).
| Time | Temp. | Humidity | Pressure | Rain* | Wind** | Luminosity | Snow |
|---|---|---|---|---|---|---|---|
| 1777516079 | 12.22° C | 48% | 1002 hPa | 0 mm | - | - | - |
| 1777515179 | 12.22° C | 48% | 1002.4 hPa | 0 mm | - | - | - |
| 1777514279 | 12.78° C | 47% | 1002.4 hPa | 0 mm | - | - | - |
| 1777513379 | 12.78° C | 47% | 1002.7 hPa | 0 mm | - | - | - |
| 1777512479 | 12.78° C | 47% | 1002.7 hPa | 0 mm | - | - | - |
| 1777511579 | 13.33° C | 47% | 1002.7 hPa | 0 mm | - | - | - |
| 1777510679 | 13.89° C | 48% | 1003 hPa | 0 mm | - | - | - |
| 1777509779 | 13.89° C | 46% | 1002.7 hPa | 0 mm | - | - | - |
| 1777508879 | 13.33° C | 48% | 1002.7 hPa | 0 mm | - | - | - |
| 1777507979 | 13.89° C | 48% | 1002.7 hPa | 0 mm | - | - | - |
| 1777507079 | 14.44° C | 45% | 1003 hPa | 0 mm | - | - | - |
| 1777506179 | 14.44° C | 47% | 1003 hPa | 0 mm | - | - | - |
| 1777505279 | 15° C | 47% | 1003.4 hPa | 0 mm | - | - | - |
| 1777504378 | 15° C | 47% | 1003.4 hPa | 0 mm | - | - | - |
| 1777503478 | 15° C | 47% | 1003.7 hPa | 0 mm | - | - | - |
| 1777502578 | 15.56° C | 47% | 1003.7 hPa | 0 mm | - | - | - |
| 1777501678 | 15.56° C | 47% | 1003.7 hPa | 0 mm | - | - | - |
| 1777500778 | 15° C | 47% | 1003.7 hPa | 0 mm | - | - | - |
| 1777499878 | 15° C | 48% | 1003.7 hPa | 0 mm | - | - | - |
| 1777498978 | 15° C | 48% | 1004.1 hPa | 0 mm | - | - | - |
| 1777498078 | 15° C | 48% | 1003.7 hPa | 0 mm | - | - | - |
| 1777497178 | 15° C | 48% | 1004.1 hPa | 0 mm | - | - | - |
| 1777496278 | 14.44° C | 49% | 1004.1 hPa | 0 mm | - | - | - |
| 1777495378 | 15° C | 50% | 1004.1 hPa | 0 mm | - | - | - |
| 1777494478 | 15° C | 50% | 1004.1 hPa | 0 mm | - | - | - |
* Rain latest hour (hover to see other rain measurements)
** Current wind speed in m/s (hover to see current wind gust speed)